EW5939 Weather Reports


time (UTC)temp
C
wind
direction
speed
KPH
gust
KPH
rain 1hr
cm
rain 24hr
cm
rain mn
cm
humidity
%
barometer
mb
20260503173108 12 0 0.0 16.1 0.00 0.00 0.00 46 1015.1
20260503171548 11 0 0.0 17.7 0.00 0.00 0.00 44 1015.2
20260503081551 0 0 0.0 0.0 0.00 0.00 0.00 13 1015.2
20260503071542 0 0 0.0 0.0 0.00 0.00 0.00 25 1015.1
20260503054539 1 0 0.0 0.0 0.00 0.03 0.00 42 1015.3
20260503053038 1 0 0.0 0.0 0.00 0.03 0.00 44 1015.3
20260503051542 1 0 0.0 0.0 0.00 0.03 0.00 47 1015.4
20260503050042 1 0 0.0 0.0 0.00 0.03 0.00 50 1015.6
20260503044542 2 0 0.0 0.0 0.00 0.03 0.00 54 1015.6
20260503043038 2 0 0.0 0.0 0.00 0.03 0.00 57 1015.6
20260503041546 2 0 0.0 0.0 0.00 0.03 0.00 58 1015.5
20260503040044 2 0 0.0 0.0 0.00 0.03 0.00 60 1015.6
20260503034544 2 0 0.0 0.0 0.00 0.03 0.03 60 1015.7
20260503033039 2 0 0.0 0.0 0.00 0.03 0.03 60 1015.6
20260503031555 2 0 0.0 0.0 0.00 0.03 0.03 61 1015.8
20260503030039 2 0 0.0 0.0 0.00 0.03 0.03 61 1015.9
20260503024538 3 0 0.0 0.0 0.00 0.03 0.03 62 1015.9
20260503023045 3 0 0.0 0.0 0.00 0.03 0.03 63 1016.0
20260503021546 3 0 0.0 0.0 0.00 0.03 0.03 63 1015.9
20260503020051 3 0 0.0 0.0 0.00 0.03 0.03 63 1016.0
20260503014538 3 0 0.0 1.6 0.00 0.03 0.03 63 1015.9
20260503013042 3 0 0.0 0.0 0.00 0.03 0.03 63 1015.8
20260503011557 3 0 0.0 1.6 0.00 0.03 0.03 63 1015.7
20260503010044 3 0 0.0 0.0 0.00 0.03 0.03 63 1015.7
20260503004605 3 0 0.0 0.0 0.00 0.08 0.03 62 1015.4
20260503003039 4 0 0.0 0.0 0.00 0.08 0.03 62 1015.4
20260503001538 4 285 0.0 0.0 0.00 0.08 0.03 62 1015.4
20260503000056 4 0 0.0 0.0 0.00 0.08 0.03 62 1015.4
20260502234538 4 0 0.0 0.0 0.00 0.10 0.03 62 1015.4
20260502233045 5 0 0.0 0.0 0.00 0.10 0.03 62 1015.2
20260502231551 5 0 0.0 1.6 0.00 0.10 0.03 61 1015.2
20260502230041 5 0 0.0 4.8 0.00 0.10 0.03 62 1015.2
20260502224555 5 0 0.0 0.0 0.00 0.18 0.03 61 1015.1
20260502223038 5 0 0.0 1.6 0.00 0.18 0.03 62 1014.9
20260502221549 5 0 0.0 0.0 0.00 0.18 0.03 63 1014.9
20260502220050 5 0 0.0 4.8 0.00 0.18 0.03 62 1014.9
20260502214544 5 0 0.0 4.8 0.00 0.33 0.03 62 1014.7
20260502213040 5 0 0.0 4.8 0.00 0.33 0.03 62 1014.6
20260502211538 6 0 0.0 1.6 0.00 0.33 0.03 62 1014.6
20260502210045 6 0 0.0 4.8 0.00 0.33 0.03 60 1014.5
20260502204549 6 0 0.0 0.0 0.00 0.46 0.03 60 1014.3
20260502203038 6 0 0.0 4.8 0.00 0.46 0.03 61 1014.6
20260502201542 6 0 0.0 9.7 0.00 0.46 0.03 58 1014.6
20260502200040 6 0 0.0 6.4 0.00 0.46 0.03 60 1014.7
20260502194540 5 0 0.0 3.2 0.00 0.56 0.03 58 1014.8
20260502193047 5 0 0.0 6.4 0.00 0.56 0.03 52 1015.1
20260502191554 5 0 0.0 3.2 0.00 0.56 0.03 59 1015.2
20260502190049 6 0 0.0 4.8 0.00 0.56 0.03 58 1015.3
20260502184543 5 0 0.0 3.2 0.00 0.61 0.03 56 1015.3
20260502183039 5 0 0.0 6.4 0.00 0.61 0.03 49 1015.3
20260502181550 5 0 0.0 4.8 0.00 0.61 0.03 47 1015.5